Flag for Australia Weather past 2 weeks in Canberra, Australian Capital Territory, Australia

Now
43 °F

Passing clouds.


Feels Like: 43 °F
Forecast: 27 / 50 °F
Wind: No wind

Location: Canberra Airport

Current Time: Jul 7, 2015 at 11:11:42 AM

Latest Report: Jul 7, 2015 at 10:30 AM


Visibility: N/A

Pressure: 30.15 "Hg (28.09 "Hg at 577m altitude)

Humidity: 76%

Dew point: 36 °F

Location of CanberraLocation

Historic Weather in Canberra — Graph

°F

Canberra temperature yesterday

Maximum temperature yesterday: 52 °F (at 3:00 PM)
Minimum temperature yesterday: 32 °F (at 11:00 PM)
Average temperature yesterday: 40 °F

Past Weeks' High & Low Weather Summary

 TemperatureHumidityPressure
High61 °F (Jun 25, 2:00 PM)100% (Jun 23, 1:00 AM)30.54 "Hg (Jun 23, 1:00 AM)
Low21 °F (Jul 3, 5:30 AM)35% (Jul 3, 1:30 PM)29.95 "Hg (Jul 6, 1:00 PM)
Average39 °F84%30.27 "Hg
* Reported Jun 22 10:00 AM — Jul 7 10:00 AM, Canberra, Weather by CustomWeather, © 2015

Note: Actual official high and low records may vary slightly from our data, if they occured in-between our weather recording intervals... More about our weather records

Advertising

Canberra weather history for previous 24 hours

 ConditionsComfort  
Time TempWeatherWind HumidityBarometerVisibility
10:00 AM
Tue, Jul 7
39 °FPassing clouds.3 mph87%30.15 "HgN/A
9:30 AM37 °FPassing clouds.1 mph93%30.15 "HgN/A
9:00 AM36 °FPassing clouds.No wind93%30.15 "HgN/A
8:47 AM34 °FSnow. Fog.No wind100%30.15 "HgN/A
8:00 AM27 °FIce fog.5 mph100%30.12 "Hg2 mi
7:00 AM25 °FSnow. Light fog.3 mph100%30.12 "HgN/A
6:30 AM25 °FPassing clouds.5 mph100%30.09 "HgN/A
6:00 AM25 °FIce fog.No wind93%30.09 "Hg1 mi
5:00 AM25 °FPassing clouds.6 mph100%30.07 "Hg5 mi
4:30 AM27 °FSnow. Passing clouds.1 mph93%30.07 "HgN/A
4:00 AM27 °FClear.7 mph100%30.07 "HgN/A
3:48 AM27 °FPassing clouds.5 mph100%30.07 "HgN/A
3:00 AM28 °FClear.5 mph93%30.07 "HgN/A
2:30 AM28 °FClear.2 mph93%30.04 "HgN/A
2:00 AM28 °FClear.7 mph100%30.04 "HgN/A
1:30 AM27 °FClear.6 mph100%30.04 "HgN/A
1:00 AM30 °FClear.1 mph93%30.04 "HgN/A
12:30 AM28 °FClear.3 mph93%30.04 "HgN/A
12:00 AM30 °FClear.3 mph100%30.04 "HgN/A
11:30 PM
Mon, Jul 6
32 °FClear.6 mph93%30.04 "HgN/A
11:00 PM32 °FClear.5 mph93%30.04 "HgN/A
10:30 PM34 °FClear.1 mph93%30.04 "HgN/A
10:00 PM36 °FClear.7 mph87%30.04 "HgN/A
9:30 PM37 °FClear.8 mph87%30.01 "HgN/A
9:00 PM37 °FClear.8 mph87%30.01 "HgN/A
8:30 PM39 °FPassing clouds.8 mph81%30.01 "HgN/A
8:00 PM39 °FPassing clouds.8 mph81%30.01 "HgN/A
7:30 PM41 °FPassing clouds.8 mph81%30.01 "HgN/A
7:00 PM41 °FPassing clouds.9 mph81%30.01 "HgN/A
6:30 PM43 °FPassing clouds.10 mph76%30.01 "HgN/A
6:00 PM43 °FPassing clouds.10 mph76%30.01 "HgN/A
5:30 PM45 °FPassing clouds.10 mph71%29.98 "HgN/A
5:00 PM45 °FPassing clouds.9 mph71%29.98 "HgN/A
4:30 PM46 °FPassing clouds.13 mph66%29.95 "HgN/A
4:00 PM50 °FScattered clouds.12 mph54%29.95 "HgN/A
3:30 PM50 °FPassing clouds.10 mph58%29.95 "HgN/A
3:00 PM52 °FPassing clouds.12 mph54%29.95 "HgN/A
2:30 PM50 °FPassing clouds.7 mph58%29.95 "HgN/A
2:00 PM50 °FPassing clouds.6 mph58%29.95 "HgN/A
1:30 PM50 °FPassing clouds.5 mph62%29.95 "HgN/A
1:00 PM48 °FPassing clouds.6 mph66%29.95 "HgN/A
12:30 PM45 °FPassing clouds.5 mph71%29.98 "HgN/A
12:00 PM45 °FPassing clouds.3 mph71%29.98 "HgN/A
11:30 AM43 °FPassing clouds.6 mph76%30.01 "HgN/A
11:00 AM41 °FPassing clouds.5 mph81%30.01 "HgN/A
Weather by CustomWeather, © 2015

See weather overviewHow to use our weather pages